When you browse on this site, cookies collect data to enhance your experience and personalize the content and advertising you see.
Visit our Privacy Policy to learn more. By continuing to use the site, you agree to this use of cookies and data.
  • In Österreich
  • Länderverzeichnis
  • Für 7 Tage
  • Wassertemperatur
  • Satellitenkarten
  • Wetterkarte
  • News
  • Widgets
  • user-avatar
    Anmelden

    Stündliche Wetter Belmopan

    Heute, 20 April, Samstag

    Zeit Temperatur Niederschläge Wind Luftdruck Luftfeuchtigkeit
    00:00 +24°C° 0 mm 1 m/S 756 mmHg 95%
    01:00 +23°C° 0 mm 1 m/S 755 mmHg 96%
    02:00 +23°C° 0 mm 1 m/S 755 mmHg 97%
    03:00 +22°C° 0 mm 1 m/S 755 mmHg 98%
    04:00 +21°C° 0 mm 1 m/S 756 mmHg 98%
    05:00 +21°C° 0 mm 1 m/S 756 mmHg 97%
    06:00 +20°C° 0 mm 1 m/S 756 mmHg 97%
    07:00 +22°C° 0 mm 1 m/S 757 mmHg 83%
    08:00 +24°C° 0 mm 1 m/S 757 mmHg 68%
    09:00 +27°C° 0 mm 2 m/S 758 mmHg 54%
    10:00 +29°C° 0 mm 2 m/S 758 mmHg 45%
    11:00 +31°C° 0 mm 2 m/S 757 mmHg 37%
    12:00 +34°C° 0 mm 2 m/S 757 mmHg 29%
    13:00 +34°C° 0 mm 2 m/S 756 mmHg 27%
    14:00 +34°C° 0 mm 1 m/S 755 mmHg 25%
    15:00 +34°C° 0 mm 1 m/S 754 mmHg 23%
    16:00 +32°C° 0 mm 1 m/S 754 mmHg 31%
    17:00 +30°C° 0 mm 1 m/S 754 mmHg 40%
    18:00 +27°C° 0 mm 1 m/S 754 mmHg 48%
    19:00 +26°C° 0 mm 1 m/S 754 mmHg 56%
    20:00 +24°C° 0 mm 1 m/S 755 mmHg 65%
    21:00 +23°C° 0 mm 1 m/S 755 mmHg 73%
    22:00 +22°C° 0 mm 1 m/S 756 mmHg 76%
    23:00 +22°C° 0 mm 1 m/S 756 mmHg 79%

    Morgen, 21 April, Sonntag

    Zeit Temperatur Niederschläge Wind Luftdruck Luftfeuchtigkeit
    00:00 +19°C° 0 mm 0 m/S 756 mmHg 82%
    01:00 +19°C° 0 mm 0 m/S 756 mmHg 84%
    02:00 +18°C° 0 mm 0 m/S 755 mmHg 86%
    03:00 +18°C° 0 mm 0 m/S 755 mmHg 88%
    04:00 +18°C° 0 mm 0 m/S 755 mmHg 87%
    05:00 +18°C° 0 mm 0 m/S 755 mmHg 87%
    06:00 +18°C° 0 mm 0 m/S 756 mmHg 86%
    07:00 +23°C° 0 mm 1 m/S 756 mmHg 78%
    08:00 +26°C° 0 mm 1 m/S 756 mmHg 69%
    09:00 +29°C° 0 mm 1 m/S 757 mmHg 60%
    10:00 +30°C° 0 mm 2 m/S 757 mmHg 57%
    11:00 +31°C° 0 mm 2 m/S 756 mmHg 53%
    12:00 +32°C° 0 mm 2 m/S 756 mmHg 50%
    13:00 +32°C° 0 mm 2 m/S 755 mmHg 51%
    14:00 +33°C° 0 mm 3 m/S 754 mmHg 52%
    15:00 +31°C° 0 mm 3 m/S 754 mmHg 53%
    16:00 +30°C° 0 mm 2 m/S 754 mmHg 57%
    17:00 +29°C° 0 mm 2 m/S 754 mmHg 62%
    18:00 +27°C° 0 mm 2 m/S 754 mmHg 67%
    19:00 +26°C° 0 mm 1 m/S 754 mmHg 73%
    20:00 +24°C° 0 mm 1 m/S 755 mmHg 80%
    21:00 +22°C° 0 mm 1 m/S 756 mmHg 86%
    22:00 +22°C° 0 mm 1 m/S 755 mmHg 89%
    23:00 +22°C° 0 mm 1 m/S 755 mmHg 91%

    übermorgen, 22 April, Montag

    Zeit Temperatur Niederschläge Wind Luftdruck Luftfeuchtigkeit
    00:00 +22°C° 0 mm 1 m/S 755 mmHg 93%
    01:00 +20°C° 0 mm 0 m/S 754 mmHg 94%
    02:00 +20°C° 0 mm 0 m/S 754 mmHg 95%
    03:00 +20°C° 0 mm 0 m/S 753 mmHg 97%
    04:00 +20°C° 0 mm 0 m/S 754 mmHg 96%
    05:00 +21°C° 0 mm 0 m/S 754 mmHg 95%
    06:00 +22°C° 0 mm 0 m/S 754 mmHg 94%
    07:00 +25°C° 0.1 mm 1 m/S 754 mmHg 87%
    08:00 +27°C° 0.1 mm 1 m/S 755 mmHg 81%
    09:00 +29°C° 0.1 mm 2 m/S 755 mmHg 74%
    10:00 +29°C° 0.3 mm 2 m/S 755 mmHg 71%
    11:00 +30°C° 0.3 mm 2 m/S 754 mmHg 67%
    12:00 +31°C° 0.3 mm 2 m/S 754 mmHg 63%
    13:00 +31°C° 0.1 mm 2 m/S 753 mmHg 61%
    14:00 +33°C° 0.1 mm 3 m/S 752 mmHg 59%
    15:00 +33°C° 0.1 mm 3 m/S 752 mmHg 56%
    16:00 +31°C° 0 mm 2 m/S 752 mmHg 63%
    17:00 +30°C° 0 mm 2 m/S 752 mmHg 69%
    18:00 +28°C° 0 mm 2 m/S 752 mmHg 75%
    19:00 +27°C° 0 mm 2 m/S 753 mmHg 82%
    20:00 +26°C° 0 mm 1 m/S 753 mmHg 89%
    21:00 +25°C° 0 mm 1 m/S 754 mmHg 95%
    22:00 +25°C° 0 mm 1 m/S 754 mmHg 96%
    23:00 +24°C° 0 mm 1 m/S 753 mmHg 97%

    23 April, Dienstag

    Zeit Temperatur Niederschläge Wind Luftdruck Luftfeuchtigkeit
    00:00 +24°C° 0 mm 1 m/S 753 mmHg 98%
    01:00 +24°C° 0 mm 1 m/S 753 mmHg 98%
    02:00 +24°C° 0 mm 1 m/S 752 mmHg 98%
    03:00 +24°C° 0 mm 1 m/S 752 mmHg 99%
    04:00 +22°C° 0 mm 0 m/S 752 mmHg 98%
    05:00 +22°C° 0 mm 0 m/S 752 mmHg 98%
    06:00 +22°C° 0 mm 0 m/S 752 mmHg 98%
    07:00 +26°C° 0 mm 1 m/S 753 mmHg 86%
    08:00 +29°C° 0 mm 2 m/S 753 mmHg 73%
    09:00 +31°C° 0 mm 2 m/S 754 mmHg 61%
    10:00 +32°C° 0 mm 2 m/S 753 mmHg 55%
    11:00 +35°C° 0 mm 3 m/S 753 mmHg 48%
    12:00 +36°C° 0 mm 3 m/S 752 mmHg 42%
    13:00 +35°C° 0 mm 3 m/S 752 mmHg 44%
    14:00 +35°C° 0 mm 3 m/S 751 mmHg 46%
    15:00 +35°C° 0 mm 3 m/S 751 mmHg 48%
    16:00 +33°C° 0 mm 3 m/S 751 mmHg 56%
    17:00 +30°C° 0 mm 3 m/S 751 mmHg 64%
    18:00 +28°C° 0 mm 2 m/S 751 mmHg 72%
    19:00 +27°C° 0 mm 2 m/S 752 mmHg 78%
    20:00 +26°C° 0 mm 1 m/S 752 mmHg 85%
    21:00 +25°C° 0 mm 1 m/S 753 mmHg 91%
    22:00 +25°C° 0 mm 1 m/S 752 mmHg 93%
    23:00 +24°C° 0 mm 1 m/S 752 mmHg 94%

    24 April, Mittwoch

    Zeit Temperatur Niederschläge Wind Luftdruck Luftfeuchtigkeit
    00:00 +24°C° 0 mm 1 m/S 752 mmHg 96%
    01:00 +24°C° 0 mm 1 m/S 752 mmHg 97%
    02:00 +24°C° 0 mm 1 m/S 751 mmHg 98%
    03:00 +24°C° 0 mm 1 m/S 751 mmHg 98%
    04:00 +24°C° 0 mm 1 m/S 751 mmHg 98%
    05:00 +24°C° 0 mm 1 m/S 751 mmHg 98%
    06:00 +24°C° 0 mm 1 m/S 752 mmHg 98%
    07:00 +26°C° 0 mm 1 m/S 752 mmHg 86%
    08:00 +29°C° 0 mm 2 m/S 753 mmHg 74%
    09:00 +31°C° 0 mm 2 m/S 753 mmHg 63%
    10:00 +33°C° 0 mm 3 m/S 752 mmHg 57%
    11:00 +34°C° 0 mm 3 m/S 752 mmHg 52%
    12:00 +36°C° 0 mm 3 m/S 751 mmHg 47%
    13:00 +35°C° 0 mm 3 m/S 751 mmHg 48%
    14:00 +35°C° 0 mm 3 m/S 750 mmHg 49%
    15:00 +35°C° 0 mm 3 m/S 749 mmHg 51%
    16:00 +33°C° 0 mm 3 m/S 750 mmHg 59%
    17:00 +30°C° 0 mm 3 m/S 750 mmHg 66%
    18:00 +29°C° 0 mm 2 m/S 750 mmHg 74%
    19:00 +28°C° 0 mm 2 m/S 750 mmHg 80%
    20:00 +27°C° 0 mm 2 m/S 751 mmHg 87%
    21:00 +25°C° 0 mm 1 m/S 751 mmHg 94%
    22:00 +25°C° 0 mm 1 m/S 751 mmHg 94%
    23:00 +25°C° 0 mm 1 m/S 751 mmHg 95%

    25 April, Donnerstag

    Zeit Temperatur Niederschläge Wind Luftdruck Luftfeuchtigkeit
    00:00 +25°C° 0 mm 1 m/S 750 mmHg 96%
    01:00 +25°C° 0 mm 1 m/S 750 mmHg 96%
    02:00 +25°C° 0 mm 1 m/S 750 mmHg 97%
    03:00 +24°C° 0 mm 1 m/S 749 mmHg 98%
    04:00 +24°C° 0 mm 1 m/S 750 mmHg 98%
    05:00 +25°C° 0 mm 1 m/S 750 mmHg 97%
    06:00 +25°C° 0 mm 1 m/S 750 mmHg 97%
    07:00 +27°C° 0 mm 1 m/S 751 mmHg 87%
    08:00 +29°C° 0 mm 2 m/S 751 mmHg 76%
    09:00 +32°C° 0 mm 2 m/S 751 mmHg 66%
    10:00 +34°C° 0.1 mm 2 m/S 751 mmHg 61%
    11:00 +35°C° 0.1 mm 2 m/S 750 mmHg 55%
    12:00 +36°C° 0.1 mm 2 m/S 750 mmHg 50%
    13:00 +37°C° 0 mm 2 m/S 749 mmHg 50%
    14:00 +37°C° 0 mm 2 m/S 749 mmHg 50%
    15:00 +37°C° 0 mm 2 m/S 748 mmHg 50%
    16:00 +35°C° 0 mm 2 m/S 748 mmHg 57%
    17:00 +32°C° 0 mm 2 m/S 749 mmHg 64%
    18:00 +31°C° 0 mm 2 m/S 749 mmHg 70%
    19:00 +29°C° 0 mm 2 m/S 749 mmHg 78%
    20:00 +28°C° 0 mm 1 m/S 750 mmHg 85%
    21:00 +26°C° 0 mm 1 m/S 751 mmHg 93%
    22:00 +26°C° 0 mm 1 m/S 750 mmHg 94%
    23:00 +26°C° 0 mm 1 m/S 750 mmHg 96%
    Mehr zeigen